Find Starlink 4331

NORAD ID: 53046 Int'l Des: 2022-077 Owner: SPXS Country: US Constellation: starlink operational
LEOCIRCULARRETROGRADESSO

現在のビュー

3D地球を読み込み中...

About Starlink 4331

Starlink 4331 (NORAD 53046) is a starlink constellation satellite (v1.5) launched Jul 11, 2022 by SPXS of US. It operates in LEO, CIRCULAR, RETROGRADE, SSO orbit with a mass of 297.00 kg.

次回通過

Passes for default location (London). Set your location on the main map for personalized predictions.

高度履歴

Loading altitude history...

軌道要素

1 53046U 22077D 26265.44498920 .00003019 00000-0 95860-4 0 9992
2 53046 97.2857 81.1181 0001654 94.6150 265.5281 15.33427380230650
Epoch: Sep 22, 2026 • Age: 21 hours

現在のステータス

高度 481.6 km
遠地点 / 近地点 N/A
速度 7.62 km/s
衛星直下点 -39.80°S, 133.79°E
打ち上げ日 Jul 11, 2022
運用期間 4.2 years
タイプ internet

技術仕様

分類 Payload
質量 297.00 kg
乾燥質量 275.00 kg
長さ 0.20 m
スパン 9.00 m
形状 ? Box + pan
製造者 SPXS
バスタイプ Starlink
フェーズステータス In Orbit
所有者/国 SPXS/US

Most Searched